Regional Weather Roundup
Issued by NWS

Home | Current Version | Previous Version | Graphics & Text | Print | Product List | Glossary On
Versions: 1 2 3 4 5 6 7 8 9 10 11 12 13 14 15 16 17 18 19 20 21 22 23 24 25 26 27 28
000
ASUS45 KCYS 280110
RWRWY

WYOMING REGIONAL WEATHER ROUNDUP
NATIONAL WEATHER SERVICE CHEYENNE WY
700 PM MDT MON MAR 27 2017

NOTE:  "FAIR" INDICATES FEW OR NO CLOUDS BELOW 12,000 FEET
WITH NO SIGNIFICANT WEATHER AND/OR OBSTRUCTIONS TO VISIBILITY.

WYZ001-280200-
YELLOWSTONE NATIONAL PARK

CITY           SKY/WX    TMP DP  RH WIND       PRES   REMARKS
LK YELLOWSTONE   N/A     30  29  96 CALM      29.96R
W YELLOWSTONE  NOT AVBL

$$
WYZ002>013-054>058-071-098>099-280200-
NORTHERN WYOMING

CITY           SKY/WX    TMP DP  RH WIND       PRES   REMARKS
JACKSON        PTCLDY    37  34  87 N12       29.93R WCI  30
CODY           MOCLDY    49  31  49 NW3       29.88R
GREYBULL       FAIR      59  23  25 NW12      29.80R
WORLAND        FAIR      56  26  31 N6        29.80R
SHERIDAN       CLOUDY    56  31  38 CALM      29.85R
BUFFALO        CLOUDY    51  31  46 NW9       29.88R
GILLETTE         N/A     54  31  41 MISG      29.84R
HULETT         FAIR      52  36  54 E8        29.87R
NEWCASTLE      FAIR      55  25  30 SE12G17   29.84R

$$
WYZ014>020-022>026-101>103-280200-
CENTRAL WYOMING

CITY           SKY/WX    TMP DP  RH WIND       PRES   REMARKS
BIG PINEY      CLOUDY    39  27  62 N7        29.88R WCI  34
PINEDALE       CLOUDY    37  28  70 N6        29.88R WCI  33
DUBOIS         CLOUDY    39  27  60 NW13      29.86R WCI  32
LANDER         CLOUDY    51  25  36 N7        29.80R
RIVERTON       FAIR      51  26  37 N8        29.81R
CASPER         FAIR      51  28  41 NE6       29.81R
DOUGLAS        FAIR      56  20  24 N3        29.81R

$$
WYZ021-027>030-104>119-280200-
SOUTHERN WYOMING

CITY           SKY/WX    TMP DP  RH WIND       PRES   REMARKS
EVANSTON       SNOW      32  30  92 N16       29.87R VSB 1/4 WCI  21
KEMMERER       SNOW      32  32 100 NW12      29.89R VSB 1/2 WCI  23
FORT BRIDGER   SNOW      34  34 100 N10       29.90R VSB<1/4 WCI  26
ROCK SPRINGS   LGT RAIN  38  34  85 N10       29.84S WCI  31
DIXON            N/A     41  37  87 E3        29.89S
RAWLINS        CLOUDY    41  32  70 W9        29.87R
SARATOGA       RAIN      36  36 100 SW7       29.89R WCI  30
LARAMIE        CLOUDY    46  27  47 S13       29.83R
CHEYENNE       CLOUDY    52  29  41 S17G23    29.82R
TORRINGTON     CLOUDY    61  23  23 NE8       29.77S
PINE BLUFFS    CLOUDY    55  28  35 SE9G18    29.82R

$$




USA.gov is the U.S. government's official web portal to all federal, state and local government web resources and services.